Radiation Dose at Monitoring Post of Fukushima Daini Nuclear Power Station
Date,Time,MP-1(microSv/h),MP-2(microSv/h),MP-3(microSv/h),MP-4(microSv/h),MP-5(microSv/h),MP-6(microSv/h),MP-7(microSv/h),Wind Direction,Wind Velocity(m/s),Rain
2016/10/19,00:00,0.411,0.244,0.421,0.385,0.368,0.200,0.171,north,8.4,No
2016/10/19,00:10,0.407,0.245,0.421,0.386,0.368,0.199,0.171,north,8.2,No
2016/10/19,00:20,0.410,0.244,0.421,0.385,0.367,0.199,0.171,north,8.3,No
2016/10/19,00:30,0.406,0.245,0.421,0.387,0.369,0.199,0.171,north,8.6,No
2016/10/19,00:40,0.410,0.244,0.420,0.387,0.368,0.199,0.170,north,8.8,No
2016/10/19,00:50,0.409,0.244,0.421,0.386,0.367,0.201,0.172,north,9.1,No
2016/10/19,01:00,0.410,0.246,0.421,0.387,0.369,0.200,0.171,north,9.6,No
2016/10/19,01:10,0.408,0.244,0.422,0.385,0.368,0.198,0.171,north,8.9,No
2016/10/19,01:20,0.409,0.244,0.421,0.388,0.368,0.200,0.171,north-northwest,8.6,No
2016/10/19,01:30,0.410,0.244,0.420,0.385,0.367,0.199,0.171,north-northwest,7.8,No
2016/10/19,01:40,0.409,0.245,0.421,0.386,0.368,0.199,0.171,north-northwest,7.8,No
2016/10/19,01:50,0.410,0.244,0.422,0.384,0.366,0.200,0.171,north-northwest,8.4,No
2016/10/19,02:00,0.410,0.244,0.422,0.388,0.368,0.200,0.172,north-northwest,8.2,No
2016/10/19,02:10,0.408,0.244,0.422,0.387,0.365,0.199,0.170,north-northwest,8.6,No
2016/10/19,02:20,0.410,0.245,0.420,0.387,0.368,0.198,0.171,north,8.9,No
2016/10/19,02:30,0.409,0.244,0.421,0.385,0.365,0.199,0.171,north,8.5,No
2016/10/19,02:40,0.407,0.246,0.420,0.387,0.368,0.199,0.170,north,8.9,No
2016/10/19,02:50,0.411,0.243,0.422,0.385,0.364,0.199,0.171,north,9.2,No
2016/10/19,03:00,0.411,0.246,0.421,0.385,0.369,0.198,0.170,north,8.4,No
2016/10/19,03:10,0.410,0.244,0.420,0.388,0.365,0.198,0.171,north-northwest,7.4,No
2016/10/19,03:20,0.408,0.245,0.419,0.385,0.367,0.200,0.170,north,6.9,No
2016/10/19,03:30,0.409,0.243,0.421,0.387,0.365,0.198,0.172,north,6.7,No
2016/10/19,03:40,0.410,0.244,0.419,0.385,0.370,0.199,0.171,north-northwest,6.0,No
2016/10/19,03:50,0.409,0.243,0.421,0.388,0.366,0.198,0.170,north-northwest,6.3,No
2016/10/19,04:00,0.408,0.245,0.419,0.386,0.366,0.199,0.170,north,5.8,No
2016/10/19,04:10,0.407,0.243,0.421,0.387,0.365,0.198,0.170,north,6.3,No
2016/10/19,04:20,0.409,0.244,0.419,0.384,0.367,0.199,0.171,north,7.4,No
2016/10/19,04:30,0.407,0.245,0.421,0.387,0.367,0.198,0.170,north,7.0,No
2016/10/19,04:40,0.410,0.244,0.419,0.384,0.366,0.199,0.171,north,6.7,No
2016/10/19,04:50,0.410,0.243,0.421,0.387,0.365,0.199,0.171,north,7.2,No
2016/10/19,05:00,0.411,0.244,0.420,0.384,0.366,0.198,0.171,north,7.3,No
2016/10/19,05:10,0.408,0.245,0.423,0.388,0.367,0.198,0.170,north,5.1,No
2016/10/19,05:20,0.412,0.243,0.419,0.383,0.367,0.198,0.170,north,4.8,No
2016/10/19,05:30,0.408,0.244,0.422,0.386,0.366,0.199,0.171,north,5.3,No
2016/10/19,05:40,0.410,0.244,0.421,0.386,0.365,0.199,0.170,north,4.9,No
2016/10/19,05:50,0.408,0.244,0.422,0.387,0.368,0.199,0.171,north,5.3,No
2016/10/19,06:00,0.411,0.244,0.420,0.386,0.366,0.198,0.170,north,5.6,No
2016/10/19,06:10,0.408,0.243,0.421,0.386,0.369,0.199,0.171,north,6.1,No
2016/10/19,06:20,0.410,0.244,0.420,0.385,0.365,0.199,0.170,north,5.9,No
2016/10/19,06:30,0.408,0.244,0.420,0.387,0.366,0.199,0.169,north,5.9,No
2016/10/19,06:40,0.409,0.244,0.421,0.386,0.367,0.199,0.170,north,6.2,No
2016/10/19,06:50,0.409,0.244,0.419,0.383,0.368,0.198,0.170,north,6.0,No
2016/10/19,07:00,0.408,0.244,0.421,0.386,0.366,0.199,0.171,north,6.3,No
2016/10/19,07:10,0.410,0.244,0.418,0.383,0.366,0.198,0.171,north,6.0,No
2016/10/19,07:20,0.410,0.245,0.422,0.386,0.365,0.199,0.169,north,5.6,No
2016/10/19,07:30,0.408,0.244,0.419,0.387,0.367,0.199,0.170,north,5.9,No
2016/10/19,07:40,0.408,0.244,0.419,0.383,0.366,0.199,0.170,north-northwest,5.2,No
2016/10/19,07:50,0.407,0.243,0.419,0.386,0.368,0.200,0.169,north-northwest,4.5,No
2016/10/19,08:00,0.409,0.245,0.422,0.383,0.363,0.198,0.169,north-northwest,3.8,No
2016/10/19,08:10,0.409,0.244,0.419,0.386,0.369,0.199,0.170,north,4.4,No
2016/10/19,08:20,0.409,0.244,0.422,0.385,0.365,0.199,0.169,north,4.5,No
2016/10/19,08:30,0.409,0.243,0.420,0.383,0.369,0.200,0.171,north-northwest,3.7,No
2016/10/19,08:40,0.409,0.243,0.420,0.387,0.365,0.198,0.169,north,4.2,No
2016/10/19,08:50,0.409,0.246,0.420,0.386,0.366,0.198,0.169,north,4.4,No
2016/10/19,09:00,0.410,0.242,0.422,0.382,0.369,0.198,0.170,north,3.5,No
2016/10/19,09:10,0.407,0.242,0.421,0.388,0.364,0.199,0.171,north-northeast,2.5,No
2016/10/19,09:20,0.404,0.244,0.419,0.387,0.369,0.199,0.171,north-northeast,4.7,No
2016/10/19,09:30,0.408,0.244,0.423,0.382,0.367,0.199,0.169,north-northeast,5.0,No
2016/10/19,09:40,0.410,0.242,0.418,0.381,0.363,0.198,0.169,north-northeast,4.8,No
2016/10/19,09:50,0.406,0.241,0.421,0.382,0.366,0.198,0.169,north-northeast,4.7,No
2016/10/19,10:00,0.405,0.243,0.419,0.383,0.369,0.198,0.170,north-northeast,4.2,No
2016/10/19,10:10,0.411,0.244,0.419,0.382,0.366,0.201,0.172,north-northeast,3.8,No
2016/10/19,10:20,0.409,0.243,0.422,0.386,0.364,0.199,0.171,north-northeast,4.2,No
2016/10/19,10:30,0.406,0.241,0.419,0.388,0.365,0.199,0.172,north-northeast,4.1,No
2016/10/19,10:40,0.408,0.245,0.420,0.387,0.368,0.199,0.169,north-northeast,3.9,No
2016/10/19,10:50,0.411,0.244,0.421,0.386,0.367,0.199,0.170,northeast,5.0,No
2016/10/19,11:00,0.408,0.243,0.417,0.384,0.364,0.200,0.171,northeast,4.8,No
2016/10/19,11:10,0.406,0.242,0.417,0.383,0.363,0.200,0.172,north-northeast,3.3,No
2016/10/19,11:20,0.407,0.244,0.422,0.383,0.364,0.199,0.171,northeast,4.6,No
2016/10/19,11:30,0.410,0.244,0.421,0.384,0.369,0.198,0.170,northeast,4.0,No
2016/10/19,11:40,0.409,0.244,0.419,0.383,0.368,0.199,0.169,northeast,3.5,No
2016/10/19,11:50,0.407,0.244,0.425,0.383,0.367,0.200,0.169,northeast,4.1,No
2016/10/19,12:00,0.411,0.245,0.421,0.382,0.365,0.199,0.172,northeast,4.6,No
2016/10/19,12:10,0.410,0.245,0.419,0.385,0.363,0.200,0.172,north-northeast,4.2,No
2016/10/19,12:20,0.409,0.245,0.416,0.385,0.368,0.199,0.171,northeast,5.4,No
2016/10/19,12:30,0.412,0.242,0.417,0.384,0.370,0.200,0.170,northeast,4.3,No
2016/10/19,12:40,0.410,0.244,0.415,0.385,0.366,0.198,0.170,northeast,3.9,No
2016/10/19,12:50,0.411,0.246,0.416,0.390,0.365,0.201,0.170,northeast,5.7,No
2016/10/19,13:00,0.412,0.245,0.418,0.389,0.363,0.200,0.172,northeast,5.1,No
2016/10/19,13:10,0.409,0.243,0.424,0.388,0.364,0.200,0.172,northeast,5.2,No
2016/10/19,13:20,0.412,0.245,0.423,0.386,0.369,0.201,0.171,north-northeast,4.0,No
2016/10/19,13:30,0.411,0.244,0.418,0.386,0.367,0.200,0.171,northeast,3.3,No
2016/10/19,13:40,0.409,0.244,0.417,0.385,0.367,0.200,0.171,northeast,3.3,No
2016/10/19,13:50,0.412,0.243,0.417,0.385,0.365,0.199,0.172,north-northeast,3.8,No
2016/10/19,14:00,0.407,0.245,0.417,0.388,0.364,0.200,0.170,northeast,3.2,No
2016/10/19,14:10,0.411,0.246,0.422,0.388,0.369,0.199,0.171,northeast,3.5,No
2016/10/19,14:20,0.410,0.244,0.423,0.386,0.369,0.200,0.173,east-northeast,2.3,No
2016/10/19,14:30,0.410,0.244,0.419,0.386,0.366,0.201,0.171,east-northeast,3.1,No
2016/10/19,14:40,0.413,0.246,0.425,0.390,0.366,0.199,0.173,northeast,2.1,No
2016/10/19,14:50,0.409,0.245,0.424,0.387,0.369,0.199,0.172,east-northeast,2.1,No
2016/10/19,15:00,0.413,0.247,0.422,0.389,0.366,0.199,0.171,northeast,2.6,No
2016/10/19,15:10,0.410,0.246,0.426,0.389,0.370,0.199,0.173,east-northeast,2.0,No
2016/10/19,15:20,0.412,0.245,0.420,0.388,0.366,0.200,0.170,northeast,2.1,No
2016/10/19,15:30,0.411,0.246,0.424,0.388,0.370,0.199,0.172,northeast,2.5,No
2016/10/19,15:40,0.409,0.244,0.424,0.385,0.368,0.201,0.170,east-northeast,1.5,No
2016/10/19,15:50,0.412,0.247,0.419,0.390,0.366,0.200,0.171,east,2.0,No
2016/10/19,16:00,0.410,0.246,0.423,0.387,0.369,0.200,0.171,east,1.5,No
2016/10/19,16:10,0.411,0.246,0.419,0.390,0.367,0.200,0.171,northeast,1.7,No
2016/10/19,16:20,0.410,0.245,0.423,0.386,0.369,0.199,0.171,east,1.3,No
2016/10/19,16:30,0.412,0.246,0.419,0.386,0.366,0.200,0.171,east,1.4,No
2016/10/19,16:40,0.408,0.245,0.423,0.386,0.369,0.200,0.172,east-southeast,0.9,No
2016/10/19,16:50,0.412,0.247,0.420,0.388,0.365,0.199,0.170,south-southeast,0.6,No
2016/10/19,17:00,0.409,0.245,0.423,0.390,0.370,0.198,0.171,-,CALM,No
2016/10/19,17:10,0.411,0.245,0.423,0.385,0.366,0.201,0.172,-,CALM,No
2016/10/19,17:20,0.409,0.244,0.422,0.388,0.367,0.199,0.172,-,CALM,No
2016/10/19,17:30,0.411,0.246,0.422,0.387,0.367,0.200,0.170,-,CALM,No
2016/10/19,17:40,0.409,0.244,0.423,0.390,0.369,0.199,0.172,-,CALM,No
2016/10/19,17:50,0.409,0.247,0.421,0.387,0.367,0.201,0.170,south-southwest,0.7,No
2016/10/19,18:00,0.412,0.245,0.422,0.391,0.369,0.200,0.172,-,CALM,No
2016/10/19,18:10,0.409,0.246,0.423,0.385,0.366,0.200,0.171,-,CALM,No
2016/10/19,18:20,0.411,0.246,0.421,0.391,0.368,0.199,0.171,south-southwest,0.7,No
2016/10/19,18:30,0.410,0.246,0.423,0.387,0.364,0.200,0.171,southwest,1.3,No
2016/10/19,18:40,0.410,0.245,0.421,0.388,0.370,0.200,0.171,south-southwest,1.2,No
2016/10/19,18:50,0.411,0.245,0.423,0.387,0.366,0.200,0.172,south,1.7,No
2016/10/19,19:00,0.413,0.246,0.422,0.389,0.370,0.198,0.172,south,1.7,No
2016/10/19,19:10,0.410,0.245,0.421,0.386,0.367,0.200,0.172,south,1.4,No
2016/10/19,19:20,0.411,0.246,0.423,0.390,0.370,0.200,0.171,south-southwest,2.2,No
2016/10/19,19:30,0.410,0.245,0.423,0.387,0.367,0.200,0.171,south-southwest,1.9,No
2016/10/19,19:40,0.412,0.246,0.422,0.391,0.369,0.200,0.170,south-southwest,1.1,No
2016/10/19,19:50,0.410,0.245,0.422,0.387,0.368,0.200,0.172,-,CALM,No
2016/10/19,20:00,0.411,0.247,0.423,0.390,0.369,0.199,0.172,south-southwest,1.9,No
2016/10/19,20:10,0.410,0.246,0.423,0.386,0.367,0.200,0.172,south-southwest,2.1,No
2016/10/19,20:20,0.410,0.245,0.422,0.389,0.369,0.199,0.171,south-southwest,1.4,No
2016/10/19,20:30,0.412,0.247,0.422,0.385,0.366,0.200,0.172,-,CALM,No
2016/10/19,20:40,0.409,0.246,0.422,0.391,0.368,0.200,0.172,-,CALM,No
2016/10/19,20:50,0.412,0.245,0.423,0.385,0.366,0.201,0.172,southwest,0.9,No
2016/10/19,21:00,0.409,0.246,0.422,0.389,0.368,0.199,0.173,-,CALM,No
2016/10/19,21:10,0.411,0.245,0.423,0.386,0.366,0.199,0.171,-,CALM,No
2016/10/19,21:20,0.410,0.245,0.420,0.390,0.368,0.199,0.173,south-southwest,0.6,No
2016/10/19,21:30,0.413,0.245,0.423,0.388,0.367,0.200,0.172,-,CALM,No
2016/10/19,21:40,0.410,0.245,0.420,0.388,0.369,0.200,0.172,-,CALM,No
2016/10/19,21:50,0.411,0.246,0.423,0.386,0.368,0.200,0.172,north,0.5,No
2016/10/19,22:00,0.411,0.245,0.422,0.390,0.368,0.200,0.172,south,1.6,No
2016/10/19,22:10,0.413,0.247,0.422,0.387,0.368,0.200,0.171,south-southwest,1.6,No
2016/10/19,22:20,0.409,0.245,0.422,0.389,0.369,0.200,0.171,south-southwest,3.0,No
2016/10/19,22:30,0.412,0.246,0.422,0.387,0.368,0.200,0.172,south-southwest,3.6,No
2016/10/19,22:40,0.409,0.246,0.423,0.389,0.369,0.199,0.172,south-southwest,4.1,No
2016/10/19,22:50,0.413,0.246,0.421,0.387,0.369,0.199,0.173,south-southwest,4.5,No
2016/10/19,23:00,0.411,0.245,0.422,0.388,0.369,0.199,0.171,south,5.4,No
2016/10/19,23:10,0.412,0.246,0.422,0.388,0.369,0.200,0.171,south-southwest,5.9,No
2016/10/19,23:20,0.411,0.245,0.424,0.388,0.368,0.200,0.173,south-southwest,5.3,No
2016/10/19,23:30,0.412,0.246,0.421,0.389,0.367,0.201,0.172,south,6.2,No
2016/10/19,23:40,0.409,0.246,0.424,0.387,0.366,0.199,0.173,south-southwest,6.7,No
2016/10/19,23:50,0.410,0.246,0.421,0.389,0.371,0.200,0.171,south-southwest,7.9,No
